This is the latest recevied weather packets stored in our database for station/object KB8TTR. If no packets are shown the sender has not sent any weather packets the latest 10 day(s).
| Time | Temp. | Humidity | Pressure | Rain* | Wind** | Luminosity | Snow |
|---|---|---|---|---|---|---|---|
| 1788483724 | 22.22° C | 97% | 1015.9 hPa | 0 mm | - | 0 W/m² | - |
| 1788483419 | 22.22° C | 97% | 1015.9 hPa | 0 mm | - | 0 W/m² | - |
| 1788483115 | 22.22° C | 97% | 1015.6 hPa | 0 mm | - | 0 W/m² | - |
| 1788482809 | 22.22° C | 97% | 1015.9 hPa | 0 mm | - | 0 W/m² | - |
| 1788482504 | 22.22° C | 97% | 1015.8 hPa | 0 mm | - | 0 W/m² | - |
| 1788482199 | 22.22° C | 97% | 1015.5 hPa | 0 mm | - | 0 W/m² | - |
| 1788481895 | 22.22° C | 97% | 1015.8 hPa | 0 mm | - | 0 W/m² | - |
| 1788481592 | 22.22° C | 97% | 1015.9 hPa | 0 mm | - | 0 W/m² | - |
| 1788481291 | 22.22° C | 97% | 1016 hPa | 0 mm | - | 0 W/m² | - |
| 1788480987 | 22.22° C | 97% | 1015.7 hPa | 0 mm | - | 0 W/m² | - |
| 1788480685 | 22.22° C | 97% | 1016.1 hPa | 0 mm | - | 1 W/m² | - |
| 1788480381 | 22.22° C | 97% | 1015.8 hPa | 0 mm | - | 1 W/m² | - |
| 1788480076 | 22.22° C | 97% | 1015.8 hPa | 0 mm | - | 2 W/m² | - |
| 1788479776 | 22.22° C | 97% | 1015.9 hPa | 0 mm | - | 4 W/m² | - |
| 1788479473 | 22.22° C | 96% | 1016.1 hPa | 0 mm | - | 5 W/m² | - |
| 1788479167 | 22.22° C | 96% | 1016 hPa | 0 mm | - | 12 W/m² | - |
| 1788478863 | 22.22° C | 96% | 1015.8 hPa | 0 mm | - | 16 W/m² | - |
| 1788478559 | 22.22° C | 96% | 1015.9 hPa | 0 mm | - | 18 W/m² | - |
| 1788478255 | 22.22° C | 96% | 1016 hPa | 0 mm | - | 26 W/m² | - |
| 1788477949 | 22.22° C | 96% | 1016 hPa | 0 mm | - | 30 W/m² | - |
| 1788477644 | 22.22° C | 96% | 1015.8 hPa | 0 mm | - | 29 W/m² | - |
| 1788477339 | 22.22° C | 96% | 1016 hPa | 0 mm | - | 37 W/m² | - |
| 1788477033 | 22.22° C | 96% | 1015.8 hPa | 0 mm | - | 45 W/m² | - |
| 1788476730 | 22.22° C | 97% | 1016 hPa | 0 mm | - | 41 W/m² | - |
| 1788476427 | 22.22° C | 97% | 1016 hPa | 0 mm | - | 38 W/m² | - |
* Rain latest hour (hover to see other rain measurements)
** Current wind speed in m/s (hover to see current wind gust speed)